Charlottetown, Prince Edward Island

2:42 PM ADT on April 30, 2017 (GMT -0300)
Charlottetown

Weather History for CYYG - December, 2013

Change the Weather History Date:

Friday, December 27, 2013

  Actual Average Record
Temperature  
Mean Temperature 22 °F -  
Max Temperature 28 °F 26 °F 48 °F (1999)
Min Temperature 14 °F 11 °F 6 °F (2008)
Degree Days  
Heating Degree Days 44    
Moisture  
Dew Point 24 °F    
Average Humidity 92    
Maximum Humidity 100    
Minimum Humidity 80    
Precipitation  
Precipitation 0.04 in 0.14 in - ()
Sea Level Pressure  
Sea Level Pressure 29.98 in    
Wind  
Wind Speed 7 mph ()    
Max Wind Speed 14 mph    
Max Gust Speed 22 mph    
Visibility 7.9 miles    
Events Snow    
Averages and records for this station are not official NWS values.
T = Trace of Precipitation, MM = Missing Value Source: Averaged Metar Reports

Daily Weather History Graph

Daily Weather History Graph

Search for Another Location

Airport or City:

Trip Planner

Search our weather history database for the weather conditions in past years. The results will help you decide how hot, cold, wet, or windy it might be!

Date:

Astronomy

Dec. 27, 2013 Rise Set
Actual Time 7:54 AM AST 4:32 PM AST
Civil Twilight 7:20 AM AST 5:07 PM AST
Nautical Twilight 6:41 AM AST 5:45 PM AST
Astronomical Twilight 6:05 AM AST 6:22 PM AST
Moon 2:09 AM AST (12/27) 12:51 PM AST (12/27)
Length of Visible Light 9h 47m
Length of Day
8h 37m
Waning Crescent, 29% of the Moon is Illuminated
Dec 27
Waning Crescent
Jan 1
New
Jan 7
First Quarter
Jan 16
Full
Jan 24
Last Quarter

Hourly Weather History & Observations

Time (AST) Temp. Windchill Dew Point Humidity Pressure Visibility Wind Dir Wind Speed Gust Speed Precip Events Conditions
12:00 AM 26.6 °F 17.5 °F 24.8 °F 93% 30.08 in 0.8 mi ENE 9.2 mph - N/A Snow Light Snow
12:22 AM 26.6 °F 16.2 °F 24.8 °F 93% 30.05 in 0.5 mi ENE 11.5 mph - N/A Snow Snow
12:39 AM 26.6 °F 16.2 °F 24.8 °F 93% 30.04 in 1.5 mi ENE 11.5 mph - N/A Snow Light Snow
12:52 AM 26.6 °F 16.8 °F 24.8 °F 93% 30.02 in 3.0 mi ENE 10.4 mph - N/A Snow Light Snow
1:00 AM 26.6 °F 16.8 °F 24.8 °F 93% 30.01 in 3.0 mi ENE 10.4 mph - N/A Snow Light Snow
1:49 AM 26.6 °F 16.8 °F 24.8 °F 93% 29.99 in 0.8 mi NNE 10.4 mph - N/A Snow Light Snow
2:00 AM 27 °F - 26 °F 92% 29.99 in 0 mi North 9.2 mph - - Snow Snow
2:00 AM 26.6 °F 16.8 °F 24.8 °F 93% 29.99 in 0.5 mi North 10.4 mph - N/A Snow Snow
3:00 AM 28.4 °F 17.5 °F 26.6 °F 93% 29.97 in 3.0 mi NNE 13.8 mph - N/A Snow Light Snow
4:00 AM 28.4 °F 20.4 °F 26.6 °F 93% 29.93 in 15.0 mi NE 8.1 mph - N/A Snow Light Snow
4:20 AM 28.4 °F 22.2 °F 26.6 °F 93% 29.94 in 15.0 mi North 5.8 mph - N/A Snow Light Snow
4:31 AM 28.4 °F 21.2 °F 26.6 °F 93% 29.94 in 15.0 mi North 6.9 mph - N/A   Overcast
4:33 AM 28.4 °F 21.2 °F 26.6 °F 93% 29.94 in 15.0 mi North 6.9 mph - N/A   Overcast
4:39 AM 28.4 °F 21.2 °F 28.4 °F 100% 29.94 in 15.0 mi North 6.9 mph - N/A Snow Light Snow
5:00 AM 28.4 °F 21.2 °F 28.4 °F 100% 29.95 in 15.0 mi North 6.9 mph - N/A   Overcast
5:31 AM 28.4 °F 24.6 °F 28.4 °F 100% 29.95 in 15.0 mi NNW 3.5 mph - N/A   Overcast
5:43 AM 28.4 °F 23.3 °F 28.4 °F 100% 29.95 in 15.0 mi NNW 4.6 mph - N/A Snow Light Snow
6:00 AM 28.4 °F 23.3 °F 28.4 °F 100% 29.96 in 15.0 mi NNW 4.6 mph - N/A Snow Light Snow
6:48 AM 28.4 °F 24.6 °F 28.4 °F 100% 29.96 in 5.0 mi NW 3.5 mph - N/A Snow Light Freezing Drizzle
7:00 AM 28.4 °F 23.3 °F 28.4 °F 100% 29.97 in 5.0 mi WNW 4.6 mph - N/A   Light Freezing Drizzle
7:27 AM 28.4 °F - 28.4 °F 100% 29.97 in 3.0 mi WNW 2.3 mph - N/A Snow Light Freezing Drizzle
8:00 AM 29 °F - 28 °F 95% 29.97 in 3 mi West 4.6 mph - - Snow Light Snow
8:00 AM 28.4 °F 23.3 °F 28.4 °F 100% 29.97 in 3.0 mi West 4.6 mph - N/A Snow Light Freezing Drizzle
8:23 AM 28.4 °F 22.2 °F 28.4 °F 100% 29.98 in 3.0 mi West 5.8 mph - N/A Snow Light Snow Grains
8:54 AM 28.4 °F 24.6 °F 26.6 °F 93% 29.99 in 5.0 mi West 3.5 mph - N/A Snow Light Snow Grains
9:00 AM 28.4 °F 23.3 °F 26.6 °F 93% 29.99 in 6.0 mi West 4.6 mph - N/A Snow Light Snow Grains
9:16 AM 28.4 °F 22.2 °F 26.6 °F 93% 29.99 in 8.0 mi West 5.8 mph - N/A Snow Light Snow Grains
9:37 AM 28.4 °F 22.2 °F 26.6 °F 93% 29.99 in 10.0 mi West 5.8 mph - N/A Snow Light Snow Showers
9:47 AM 28.4 °F 23.3 °F 26.6 °F 93% 29.99 in 10.0 mi West 4.6 mph - N/A Snow Light Snow Showers
10:00 AM 28.4 °F 23.3 °F 26.6 °F 93% 29.99 in 10.0 mi West 4.6 mph - N/A Snow Light Snow Showers
10:16 AM 28.4 °F 22.2 °F 26.6 °F 93% 30.00 in 3.0 mi WNW 5.8 mph - N/A Snow Light Snow Showers
10:29 AM 28.4 °F 22.2 °F 26.6 °F 93% 30.00 in 2.0 mi WNW 5.8 mph - N/A Snow Light Snow Showers
10:43 AM 28.4 °F 21.2 °F 26.6 °F 93% 30.00 in 1.5 mi West 6.9 mph - N/A Snow Light Snow Showers
11:00 AM 28.4 °F 19.1 °F 26.6 °F 93% 30.00 in 2.5 mi WNW 10.4 mph - N/A Snow Light Snow Showers
11:17 AM 28.4 °F 20.4 °F 26.6 °F 93% 29.99 in 4.0 mi WNW 8.1 mph - N/A Snow Light Snow Showers
11:44 AM 28.4 °F 22.2 °F 24.8 °F 86% 29.98 in 6.0 mi WNW 5.8 mph - N/A Snow Light Snow Showers
12:00 PM 26.6 °F 18.2 °F 24.8 °F 93% 29.97 in 8.0 mi NNW 8.1 mph - N/A Snow Light Snow Showers
12:16 PM 26.6 °F 16.2 °F 23.0 °F 86% 29.97 in 2.5 mi NW 11.5 mph - N/A Snow Light Snow Showers
12:44 PM 24.8 °F 16.1 °F 23.0 °F 93% 29.96 in 2.5 mi NW 8.1 mph - N/A Snow Light Snow Showers
1:00 PM 24.8 °F 16.1 °F 23.0 °F 93% 29.96 in 4.0 mi NW 8.1 mph - N/A Snow Light Snow Showers
2:00 PM 24 °F - 21 °F 84% 29.96 in 2 mi West 9.2 mph - - Snow Light Snow Showers
2:00 PM 23.0 °F 13.9 °F 21.2 °F 93% 29.96 in 2.5 mi West 8.1 mph - N/A Snow Light Snow Showers
2:42 PM 23.0 °F 12.4 °F 19.4 °F 86% 29.96 in 3.0 mi West 10.4 mph - N/A Snow Light Snow Showers
3:00 PM 23.0 °F 13.9 °F 19.4 °F 86% 29.96 in 8.0 mi West 8.1 mph - N/A Snow Light Snow Showers
3:31 PM 21.2 °F 10.9 °F 17.6 °F 86% 29.96 in 15.0 mi West 9.2 mph - N/A   Mostly Cloudy
4:00 PM 21.2 °F 11.7 °F 15.8 °F 80% 29.98 in 15.0 mi West 8.1 mph - N/A   Mostly Cloudy
5:00 PM 19.4 °F 9.5 °F 15.8 °F 86% 29.99 in 15.0 mi West 8.1 mph - N/A   Mostly Cloudy
6:00 PM 19.4 °F 7.9 °F 15.8 °F 86% 29.99 in 15.0 mi West 10.4 mph - N/A   Mostly Cloudy
7:00 PM 19.4 °F 10.4 °F 14.0 °F 80% 30.00 in 15.0 mi West 6.9 mph - N/A   Mostly Cloudy
7:18 PM 19.4 °F 10.4 °F 15.8 °F 86% 30.00 in 15.0 mi West 6.9 mph - N/A Snow Light Snow Showers
8:00 PM 19 °F - 16 °F 85% 30.01 in 15 mi West 6.9 mph - - Snow Light Snow Showers
8:00 PM 19.4 °F 9.5 °F 15.8 °F 86% 30.01 in 15.0 mi West 8.1 mph - N/A   Overcast
9:00 PM 19.4 °F 6.6 °F 14.0 °F 80% 30.01 in 15.0 mi West 12.7 mph 21.9 mph N/A   Mostly Cloudy
10:00 PM 15.8 °F 4.2 °F 12.2 °F 86% 30.02 in 15.0 mi West 9.2 mph - N/A   Scattered Clouds
11:00 PM 14.0 °F 2.9 °F 12.2 °F 93% 30.03 in 15.0 mi West 8.1 mph - N/A   Scattered Clouds